This is the latest recevied weather packets stored in our database for station/object K3SV. If no packets are shown the sender has not sent any weather packets the latest 10 day(s).
| Time | Temp. | Humidity | Pressure | Rain* | Wind** | Luminosity | Snow |
|---|---|---|---|---|---|---|---|
| 1778109697 | 28.89° C | 73% | 1014.9 hPa | 0 mm | - | 31 W/m² | - |
| 1778109394 | 29.44° C | 72% | 1014.9 hPa | 0 mm | - | 35 W/m² | - |
| 1778109093 | 29.44° C | 71% | 1015 hPa | 0 mm | - | 37 W/m² | - |
| 1778108789 | 30° C | 70% | 1014.9 hPa | 0 mm | - | 40 W/m² | - |
| 1778108486 | 30° C | 69% | 1014.8 hPa | 0 mm | - | 43 W/m² | - |
| 1778108183 | 30.56° C | 68% | 1015 hPa | 0 mm | - | 52 W/m² | - |
| 1778107879 | 30.56° C | 67% | 1015 hPa | 0 mm | - | 55 W/m² | - |
| 1778107576 | 31.67° C | 64% | 1015 hPa | 0 mm | - | 126 W/m² | - |
| 1778107272 | 31.67° C | 64% | 1014.7 hPa | 0 mm | - | 138 W/m² | - |
| 1778106969 | 32.22° C | 63% | 1014.7 hPa | 0 mm | - | 154 W/m² | - |
| 1778106665 | 32.22° C | 62% | 1014.6 hPa | 0 mm | - | 177 W/m² | - |
| 1778106362 | 32.22° C | 61% | 1014.7 hPa | 0 mm | - | 190 W/m² | - |
| 1778106058 | 33.33° C | 59% | 1014.6 hPa | 0 mm | - | 212 W/m² | - |
| 1778105756 | 33.33° C | 57% | 1014.8 hPa | 0 mm | - | 256 W/m² | - |
| 1778105454 | 33.33° C | 57% | 1014.5 hPa | 0 mm | - | 266 W/m² | - |
| 1778105150 | 35° C | 51% | 1014.8 hPa | 0 mm | - | 287 W/m² | - |
| 1778104845 | 34.44° C | 41% | 1014.6 hPa | 0 mm | - | 311 W/m² | - |
| 1778104542 | 34.44° C | 41% | 1014.6 hPa | 0 mm | - | 313 W/m² | - |
| 1778104238 | 33.89° C | 43% | 1014.6 hPa | 0 mm | - | 324 W/m² | - |
| 1778103935 | 33.89° C | 42% | 1014.7 hPa | 0 mm | - | 339 W/m² | - |
| 1778103632 | 33.89° C | 43% | 1014.7 hPa | 0 mm | - | 373 W/m² | - |
| 1778103331 | 33.89° C | 43% | 1014.7 hPa | 0 mm | - | 378 W/m² | - |
| 1778103027 | 33.33° C | 43% | 1014.7 hPa | 0 mm | - | 395 W/m² | - |
| 1778102724 | 33.89° C | 42% | 1014.6 hPa | 0 mm | - | 392 W/m² | - |
| 1778102419 | 34.44° C | 42% | 1014.8 hPa | 0 mm | - | 238 W/m² | - |
* Rain latest hour (hover to see other rain measurements)
** Current wind speed in m/s (hover to see current wind gust speed)